Flag for France Weather past 2 weeks in Saint-Étienne, France

Now
52 °F

Light rain. Mostly cloudy.


Feels Like: 49 °F
Forecast: 48 / 59 °F
Wind: 7 mph from Southwest

Location: St-Etienne Boutheon

Current Time: Mar 30, 2015 at 2:39:46 AM

Latest Report: Mar 30, 2015 at 2:00 AM


Visibility: N/A

Pressure: 29.98 "Hg

Humidity: 77%

Dew point: 45 °F

Location of Saint-ÉtienneLocation

Historic Weather in Saint-Étienne — Graph

°F

Saint-Étienne temperature yesterday

Maximum temperature yesterday: 61 °F (at 3:00 PM)
Minimum temperature yesterday: 45 °F (at 12:00 AM)
Average temperature yesterday: 53 °F

Past Weeks' High & Low Weather Summary

 TemperatureHumidityPressure
High63 °F (Mar 18, 2:00 PM)100% (Mar 15, 5:30 AM)30.27 "Hg (Mar 15, 5:30 AM)
Low32 °F (Mar 23, 4:30 AM)36% (Mar 16, 3:00 PM)29.65 "Hg (Mar 24, 5:30 PM)
Average47 °F74%30.04 "Hg
* Reported Midnight between Mar 14 and Mar 15 — Mar 30 1:30 AM, Saint-Étienne, Weather by CustomWeather, © 2015

Note: Actual official high and low records may vary slightly from our data, if they occured in-between our weather recording intervals... More about our weather records

Advertising

Saint-Étienne weather history for previous 24 hours

 ConditionsComfort  
Time TempWeatherWind HumidityBarometerVisibility
1:30 AM
Mon, Mar 30
52 °FDrizzle. Mostly cloudy.7 mph77%29.98 "HgN/A
1:00 AM52 °FLight rain. Mostly cloudy.10 mph77%29.98 "HgN/A
12:30 AM52 °FDrizzle. Mostly cloudy.10 mph77%30.01 "HgN/A
12:00 AM52 °FDrizzle. Mostly cloudy.9 mph77%30.01 "HgN/A
11:30 PM
Sun, Mar 29
52 °FMostly cloudy.7 mph77%30.01 "HgN/A
11:00 PM54 °FLight rain. Mostly cloudy.6 mph72%30.01 "HgN/A
10:30 PM54 °FMostly cloudy.6 mph72%30.01 "HgN/A
10:00 PM54 °FDrizzle. Mostly cloudy.10 mph72%30.01 "HgN/A
9:30 PM54 °FLight rain. Partly cloudy.12 mph72%30.01 "HgN/A
9:00 PM55 °FMostly cloudy.8 mph67%30.01 "HgN/A
8:30 PM55 °FOvercast.9 mph67%30.01 "HgN/A
8:00 PM57 °FPartly sunny.9 mph63%30.01 "HgN/A
7:30 PM57 °FPartly sunny.7 mph63%30.01 "HgN/A
7:00 PM57 °FMostly cloudy.7 mph59%30.04 "HgN/A
6:30 PM57 °FMostly cloudy.6 mph59%30.04 "HgN/A
6:00 PM59 °FPartly sunny.8 mph55%30.04 "HgN/A
5:30 PM59 °FPartly sunny.7 mph55%30.04 "HgN/A
5:00 PM59 °FPartly sunny.8 mph55%30.04 "HgN/A
4:30 PM59 °FPartly sunny.8 mph59%30.04 "HgN/A
4:00 PM59 °FPartly sunny.6 mph55%30.07 "HgN/A
3:30 PM59 °FPartly sunny.5 mph55%30.07 "HgN/A
3:00 PM61 °FBroken clouds.7 mph52%30.07 "HgN/A
2:30 PM59 °FBroken clouds.8 mph55%30.07 "HgN/A
2:00 PM57 °FPartly sunny.9 mph59%30.07 "HgN/A
1:30 PM57 °FLight rain. Partly sunny.8 mph55%30.09 "HgN/A
1:00 PM57 °FLight rain. Partly sunny.9 mph55%30.09 "HgN/A
12:30 PM57 °FScattered clouds.8 mph55%30.09 "HgN/A
12:00 PM57 °FBroken clouds.9 mph55%30.09 "HgN/A
11:30 AM57 °FBroken clouds.6 mph55%30.09 "HgN/A
11:00 AM55 °FScattered clouds.7 mph59%30.09 "HgN/A
10:30 AM55 °FBroken clouds.6 mph59%30.09 "HgN/A
10:00 AM54 °FBroken clouds.6 mph67%30.09 "HgN/A
9:30 AM54 °FScattered clouds.5 mph63%30.09 "HgN/A
9:00 AM50 °FPartly sunny.5 mph76%30.09 "HgN/A
8:30 AM48 °FPartly sunny.5 mph76%30.12 "HgN/A
8:00 AM46 °FPassing clouds.2 mph76%30.12 "HgN/A
7:30 AM46 °FPassing clouds.6 mph76%30.12 "HgN/A
7:00 AM48 °FPassing clouds.2 mph71%30.12 "HgN/A
6:30 AM48 °FPassing clouds.8 mph76%30.09 "HgN/A
6:00 AM48 °FPassing clouds.7 mph76%30.12 "HgN/A
5:30 AM46 °FPassing clouds.7 mph82%30.12 "HgN/A
5:00 AM46 °FOvercast.6 mph82%30.12 "HgN/A
4:30 AM48 °FMostly cloudy.5 mph76%30.12 "HgN/A
4:00 AM46 °FOvercast.2 mph87%30.15 "HgN/A
3:30 AM46 °FMostly cloudy.1 mph87%30.15 "HgN/A
3:00 AM46 °FMostly cloudy.No wind87%30.15 "HgN/A
Weather by CustomWeather, © 2015

See weather overviewHow to use our weather pages